Location: Waco, TX
(31.5481°N, 97.1672°W)
Time: 19:36:58
(UTC-05:00)

ELECTRON R/B - Visible Passes

Search period start: 23 May 2018 00:00
Search period end: 02 June 2018 00:00
Orbit: 285 x 479 km, 82.9° (Epoch: 23 May)

Date Brightness Start Highest point End Pass type
(mag) Time Alt. Az. Time Alt. Az. Time Alt. Az.
23 May 6.1 21:55:56 10° NNE 21:57:12 24° NNE 21:57:12 24° NNE visible
24 May 7.3 22:32:30 10° NW 22:33:39 17° WNW 22:33:39 17° WNW visible
25 May 5.3 21:35:35 10° NNE 21:37:47 30° E 21:37:47 30° E visible
26 May 6.4 22:11:43 10° NNW 22:13:51 25° W 22:14:10 24° WSW visible
27 May 5.7 21:14:56 10° NNE 21:17:06 25° E 21:18:14 18° ESE visible
28 May 6.1 21:50:39 10° NNW 21:52:58 32° W 21:54:32 17° SSW visible
29 May 6.0 20:54:00 10° NNE 20:56:02 21° E 20:58:08 10° SE visible
30 May 5.7 21:29:17 10° NNW 21:31:45 42° W 21:34:20 10° SSW visible
01 Jun 5.2 21:07:37 10° NNW 21:10:12 58° W 21:12:56 10° S visible
